COSMOS 249 DEB, 18468

Orbit data source: Space-Track

COSMOS 249 DEB, 18468 is space debris in LEO originally from a launch on Sun, 20 Oct 1968 UTC launched from the Tyuratam Missile And Space Complex (TTMTR). Debris objects in space refer to the collection of defunct objects orbiting the Earth. Examples of debris include non-operational satellites, rocket bodies, and fragments generated from explosions, collisions, or faulty payload assembly.

Loading next visibility...
Identifier
18468, 1968-091DD
Orbit
LEO
Country
Flag of CISCIS
Related business
Manufacturer
Unknown
Mission
Spacecraft
Bus & Motor
Unknown
Mass
Unknown
Launch date (UTC)
1968-10-20 (58 years ago)
Launch vehicle
Unknown
Launch site
Tyuratam Missile And Space Complex (TTMTR)
Object type
Payload
Rocket body
Debris
Shape & HBR
Unknown shape, 0.1 m
Radar Cross Section
Medium (>0.1 m² and <1 m²)

Expand to show TLE details & history
Last TLE update: 17 hours ago

TLE from 17 hours ago
0 COSMOS 249 DEB
1 18468U 68091DD  26202.02324770  .00000857  00000-0  10749-2 0  9991
2 18468  62.2519  66.9751 0778724  94.9967 274.0292 12.82192843603811
Epoch: 2026-07-21T00:33Z
TLE epoch observation values (Epoch: 2026-07-21T00:33:28.601Z)
Latitude
0.00005°
Longitude
119.80706°
Altitude
1,338.83 km
Speed
7.187 km/s
True Right ascension
04h 27m 54s
True Declination
0° 00' 00"
Sunlit
Object was in daylight at epoch
Visualization orbit readout
Latitude
Unknown
Longitude
Unknown
Altitude
Unknown
Speed
Unknown
Apparent Right ascension
Unknown
Apparent Declination
Unknown
Sunlit
N/A
Visualization observer readout
Local Sidereal Time
06:10:02
Azimuth
Unknown
Elevation
Unknown
Doppler factor
Unknown
Orbital elements
Apogee altitude
1,932.044 km
Perigee altitude
731.282 km
Semi-major axis
7,709.8 km
Eccentricity
0.07787
Inclination
62.2519°
RAAN
66.9751°
Arg. of periapsis
94.9967°
True anomaly
265.10273°
Mean anomaly
274.0292°
Eccentric anomaly
269.56757°
Mean motion
3.20611 °/min
Orbital period
112.29 mins
BSTAR
0.0010749
Loading maneuver chart data...
Computing Atmospheric mass density...

Documentation

Showing up to 5 results
|